This demonstration page uses our WeatherBlox Daily Observations layout. Learn more.

38.89511, -77.03637

Hourly Observations for June 30, 2018

Temp ( °F °C ) Dew Point ( °F °C ) Humidity (%) Winds ( mph kmh ) Pressure ( in mb ) Visibility ( mi km ) Precip ( " mm )
12:52 am 00:52 Partly Cloudy 78 25.6 70 21.1 76 76 Calm 30.03 1017 10 16.09344 0 0
1:52 am 01:52 Partly Cloudy 76 24.4 71 21.7 85 85 S 5 7 30.03 1017 9 14.484096 0 0
2:52 am 02:52 Mostly Clear 75 23.9 70 21.1 84 84 S 3 6 30.03 1017 10 16.09344 0 0
3:52 am 03:52 Clear 75 23.9 71 21.7 88 88 Calm 30.03 1017 10 16.09344 0 0
4:52 am 04:52 Mostly Clear 73 22.8 70 21.1 90 90 Calm 30.03 1017 9 14.484096 0 0
5:52 am 05:52 Mostly Sunny 73 22.8 66 18.9 79 79 Calm 30.06 1018 10 16.09344 0 0
6:52 am 06:52 Mostly Sunny 74 23.3 67 19.4 79 79 Calm 30.06 1018 10 16.09344 0 0
7:52 am 07:52 Partly Cloudy 76 24.4 70 21.1 82 82 S 3 6 30.09 1019 10 16.09344 0 0
8:52 am 08:52 Partly Cloudy 80 26.7 69 20.6 69 69 S 7 11 30.09 1019 10 16.09344 0 0
9:52 am 09:52 Partly Cloudy 84 28.9 70 21.1 63 63 S 6 9 30.09 1019 10 16.09344 0 0
10:52 am 10:52 Partly Cloudy 87 30.6 70 21.1 57 57 S 7 11 30.06 1018 10 16.09344 0 0
11:52 am 11:52 Partly Cloudy 89 31.7 69 20.6 52 52 S 8 13 30.09 1019 10 16.09344 0 0
12:52 pm 12:52 Mostly Cloudy 90 32.2 68 20 48 48 S 12 19 30.06 1018 10 16.09344 0 0
1:52 pm 13:52 Mostly Cloudy 90 32.2 67 19.4 47 47 S 12 19 30.06 1018 10 16.09344 0 0
2:52 pm 14:52 Mostly Cloudy 90 32.2 68 20 48 48 S 10 17 30.06 1018 10 16.09344 0 0
3:52 pm 15:52 Mostly Cloudy 91 32.8 66 18.9 44 44 S 13 20 30.06 1018 10 16.09344 0 0
4:52 pm 16:52 Mostly Cloudy 90 32.2 66 18.9 45 45 SSE 9 15 30.06 1018 10 16.09344 0 0
5:52 pm 17:52 Mostly Cloudy 90 32.2 66 18.9 45 45 S 9 15 30.03 1017 10 16.09344 0 0
6:52 pm 18:52 Mostly Cloudy 88 31.1 69 20.6 54 54 S 12 19 30.03 1017 10 16.09344 0 0
7:52 pm 19:52 Mostly Cloudy 86 30 71 21.7 61 61 S 9 15 30.03 1017 10 16.09344 0 0
8:52 pm 20:52 Mostly Cloudy 83 28.3 71 21.7 67 67 S 7 11 30.03 1017 10 16.09344 0 0
9:52 pm 21:52 Partly Cloudy 82 27.8 72 22.2 72 72 S 8 13 30.03 1017 10 16.09344 0 0
10:52 pm 22:52 Partly Cloudy 80 26.7 72 22.2 76 76 S 7 11 30.03 1017 10 16.09344 0 0
11:52 pm 23:52 Mostly Cloudy 80 26.7 71 21.7 74 74 S 5 7 30.06 1018 10 16.09344 0 0

Powered by AerisWeather